Regional Weather Roundup
Issued by NWS

Home | Current Version | Previous Version | Text Only | Print | Product List | Glossary On
Versions: 1 2 3 4 5 6 7 8 9 10 11 12 13 14 15 16 17 18 19 20 21 22 23 24 25 26 27 28 29 30 31 32 33 34 35 36 37 38 39 40 41 42 43 44 45 46 47 48 49 50
000
ASUS43 KLMK 191802
RWRKY
KENTUCKY REGIONAL WEATHER ROUNDUP
NATIONAL WEATHER SERVICE LOUISVILLE KY
200 PM EDT FRI SEP 19 2014

NOTE "FAIR" INDICATES FEW OR NO CLOUDS BELOW 12,000 FEET
WITH NO SIGNIFICANT WEATHER AND/OR OBSTRUCTIONS TO VISIBILITY.

KYZ001>023-026-027-061>063-070>075-191900-
WESTERN AND SOUTH CENTRAL KENTUCKY

CITY           SKY/WX    TMP DP  RH WIND       PRES   REMARKS
PADUCAH        SUNNY     82  57  42 E5        30.05F
HENDERSON      SUNNY     77  54  44 NE7       30.08F
OWENSBORO      SUNNY     78  56  46 E7        30.09F
HOPKINSVILLE   SUNNY     80  60  49 E7        30.06F
BOWLING GREEN  SUNNY     79  58  48 SE9       30.08F
GLASGOW        SUNNY     79  57  48 E7        30.09F
$$

KYZ024-025-028>034-038-045-046-053-191900-
NORTH CENTRAL KENTUCKY

CITY           SKY/WX    TMP DP  RH WIND       PRES   REMARKS
LOUISVILLE/SDF SUNNY     76  53  44 SE8       30.11F
LOUISVILLE/LOU SUNNY     76  52  43 E7        30.12F
FORT KNOX      SUNNY     74  56  51 E8        30.10F
$$

KYZ035>037-039>044-047>052-055>060-089>105-191900-
NORTHEAST KENTUCKY

CITY           SKY/WX    TMP DP  RH WIND       PRES   REMARKS
LEXINGTON      SUNNY     75  52  44 CALM      30.14F
COVINGTON      SUNNY     72  47  40 E7        30.16F
FRANKFORT      SUNNY     74  51  44 NE8       30.13F
$$

KYZ054-064>069-076>088-106>120-191900-
SOUTHEAST KENTUCKY

CITY           SKY/WX    TMP DP  RH WIND       PRES   REMARKS
JACKSON        SUNNY     73  58  59 CALM      30.13F
LONDON         SUNNY     79  61  53 VRB5      30.12F
SOMERSET       SUNNY     77  55  47 E6        30.12F
MIDDLESBORO    MOSUNNY   78  61  55 SE3       30.11F
MONTICELLO     CLEAR     79  60  51 VRB6      30.11F
$$




USA.gov is the U.S. government's official web portal to all federal, state and local government web resources and services.